Location: *
(38.4090°S, 104.9329°E)
Time: 12:42:28
(UTC+00:00)

Daily predictions for brighter satellites

Satellite Brightness Start Highest point End
(mag) Time Altitude Azimuth Time Altitude Azimuth Time Altitude Azimuth
Cosmos 1980 4.1 12:26:55 10° NNW 12:32:36 74° WSW 12:38:20 10° SSE
Cosmos 2369 Rocket 4.4 12:35:03 10° SE 12:35:46 10° SE 12:36:29 10° SE
YAOGAN 1 2.5 12:32:19 10° SSE 12:36:42 75° E 12:41:01 10° N
Cosmos 1943 Rocket 2.9 12:32:32 10° S 12:37:54 41° ESE 12:43:14 10° NE
Okean O Rocket 3.1 12:38:55 10° SE 12:42:02 18° E 12:45:06 10° NE
BlueWalker 3 2.0 12:38:07 10° SW 12:42:02 78° SE 12:45:56 10° NE
Lacrosse 5 rocket 2.8 12:38:50 10° WNW 12:42:17 36° SW 12:45:41 10° SSE
Cosmos 614 Rocket 3.9 12:41:13 10° N 12:46:19 75° ENE 12:51:27 10° SSE
ADEOS 4.0 12:41:07 10° S 12:46:24 71° WSW 12:51:36 10° NNW
OAO 3 Rocket 3.9 12:45:26 10° NW 12:49:34 32° NNE 12:53:44 10° E
Cosmos 2278 Rocket 2.5 12:47:48 10° SSW 12:53:31 72° WNW 12:59:10 10° NNE
Spot 1 4.3 12:49:47 10° NNE 12:54:24 82° WNW 12:58:51 10° SSW
Okean 1 3.4 12:51:32 10° S 12:55:30 59° E 12:59:26 10° NNE
USA 186 3.2 12:53:35 10° SE 12:56:00 20° E 12:57:42 14° NE
BREEZE-M DEB (TANK) 2.9 12:49:30 10° WSW 12:57:52 81° NNW 13:00:43 14° NE
CZ-4C R/B 3.6 12:54:36 10° S 12:58:48 22° SE 13:02:24 10° E
Cosmos 2237 Rocket 3.4 12:53:45 10° NW 12:59:10 47° WSW 13:04:42 10° SSE
Cosmos 1302 Rocket 4.4 13:03:46 10° SSW 13:09:03 64° WNW 13:14:14 10° N
Cosmos 1328 Rocket 4.2 13:05:29 10° S 13:09:36 38° ESE 13:12:32 17° NE
Resurs 1-3 3.7 13:05:25 10° SSE 13:09:48 57° E 13:14:06 10° N
CZ-4B DEB 4.4 13:06:22 10° S 13:11:54 77° WSW 13:17:24 10° NNW
Meteor 1-5 Rocket 4.5 13:06:10 10° N 13:12:01 58° E 13:17:55 10° SSE
Cosmos 1151 Rocket 3.1 13:07:42 10° S 13:12:07 84° W 13:16:27 10° N
PAYLOAD B 4.2 13:09:01 10° SSE 13:14:37 83° ENE 13:20:08 10° NNW
Meteor 2-4 Rocket 4.1 13:09:35 10° S 13:15:03 46° ESE 13:19:04 17° NE
Resurs 01 Rocket 2.7 13:13:10 10° SE 13:16:59 27° E 13:19:02 19° NE
MINOTAUR 4 R/B 4.0 13:14:57 12° N 13:17:53 69° WNW 13:21:11 10° SSW
Cosmos 1140 Rocket 4.2 13:14:26 13° NNE 13:18:25 32° E 13:23:00 10° SE
GENESIS II 4.3 13:15:08 10° NW 13:18:39 68° WSW 13:22:12 10° SSE
Cosmos 1766 Rocket 3.5 13:14:30 10° N 13:18:49 73° E 13:23:13 10° SSE
GOES 2 Rocket 4.3 13:16:21 10° NW 13:19:31 20° N 13:20:37 18° NNE
Okean-O 3.9 13:18:16 10° SE 13:21:44 22° E 13:22:56 20° ENE
Cosmos 1271 Rocket 3.0 13:23:33 19° NNE 13:26:04 46° E 13:29:49 10° SSE
Cosmos 1553 Rocket 3.9 13:20:10 10° N 13:26:19 79° E 13:32:28 10° S
Landsat 4 3.9 13:22:49 10° SSE 13:26:21 44° E 13:28:19 22° NNE
CZ-4 R/B 1.8 13:24:00 10° S 13:27:55 62° WSW 13:31:51 10° NNW
NOSS 3-2 (A) 3.7 13:22:49 10° SSW 13:28:55 51° SE 13:32:22 21° ENE
Atlas Centaur 2 3.4 13:30:28 10° NNW 13:35:41 23° NNE 13:36:48 22° NNE
Meteor 1-18 Rocket 4.3 13:30:16 10° S 13:35:58 65° E 13:39:39 22° NNE
Cosmos 1992 Rocket 4.1 13:32:06 10° SSW 13:37:22 75° WNW 13:41:10 19° N
CSL-04 Rocket 3.7 13:35:47 10° SSE 13:41:13 61° ENE 13:45:40 16° N
SJ-6B 3.9 13:38:36 10° S 13:42:13 42° WSW 13:45:44 10° NW
Cosmos 1743 3.3 13:41:36 33° ENE 13:42:27 37° E 13:46:01 10° SSE
Cosmos 407 Rocket 3.9 13:40:39 24° NNE 13:43:09 40° ENE 13:47:59 10° SSE
SPOT 1/Viking Rocket 3.5 13:38:13 10° SSE 13:43:27 79° ENE 13:48:22 11° N
Cosmos 1656 Rocket 4.3 13:41:37 10° S 13:46:45 39° ESE 13:49:14 25° ENE
ADEOS Rocket 3.1 13:40:55 10° SSE 13:47:50 85° ENE 13:53:58 10° NNW
Okean 3 Rocket 3.7 13:45:54 15° N 13:49:43 85° W 13:54:20 10° S
SL-16 R/B 2.8 13:44:40 10° NW 13:50:16 60° WSW 13:55:55 10° SSE
CENTAUR R/B 1.9 13:46:57 10° SW 13:52:15 82° WNW 13:54:31 32° NNE
Cosmos 1536 4.1 13:53:41 24° E 13:53:41 24° E 13:56:41 10° SE
Cosmos 1745 Rocket 4.1 13:48:40 10° S 13:55:05 67° E 13:58:37 28° NNE
Cosmos 1743 Rocket 4.4 13:54:56 30° ENE 13:55:21 31° E 13:59:13 10° SSE
CSL-04 Debris 4.2 13:54:37 10° SSE 14:00:05 82° WSW 14:05:06 12° NNW
GEOS 3 Rocket 4.0 13:57:58 28° ENE 14:00:18 50° SE 14:05:11 10° SSW
Cosmos 2315 Rocket 4.2 13:58:37 29° NNE 14:01:39 52° E 14:07:46 10° SSE
OAO 1 Rocket 4.5 13:57:42 10° W 14:03:00 62° N 14:05:14 34° ENE
CZ-4B R/B 4.1 13:57:54 10° S 14:03:13 50° WSW 14:08:35 10° NW
Cosmos 807 4.3 14:03:02 10° S 14:06:18 60° ESE 14:06:18 60° ESE
Iridium 4 Rocket 4.2 14:05:31 33° NE 14:07:30 45° E 14:12:59 10° SSE
Cosmos 1461 4.5 14:04:50 10° WNW 14:08:18 33° SW 14:11:52 10° SSE
Cosmos 1943 3.3 14:05:57 29° N 14:08:43 56° ENE 14:14:20 10° SSE
ATLAS 5 CENTAUR R/B 3.6 14:03:51 10° NW 14:11:19 55° SW 14:18:23 10° SSE
Cosmos 883 Rocket 4.4 14:10:18 28° N 14:13:40 74° E 14:19:55 10° S
NOSS 3-4 (C) 4.2 14:07:33 10° NNW 14:16:02 63° ENE 14:24:12 10° SE
NOSS 3-4 (A) 4.2 14:07:31 10° NNW 14:16:03 63° ENE 14:24:13 10° SE
CARTOSAT-1 3.5 14:11:43 10° S 14:16:05 81° WSW 14:17:51 35° NNW
Cosmos 1515 Rocket 3.6 14:13:01 10° S 14:17:25 76° W 14:18:40 45° N
Terra 3.6 14:14:20 10° SE 14:16:38 17° ESE 14:16:38 17° ESE
Okean O Rocket 3.0 14:14:18 10° S 14:18:26 37° WSW 14:22:31 10° NW
Meteor 1-11 Rocket 3.9 14:18:49 42° NE 14:20:08 50° E 14:25:35 10° SSE
Cosmos 2369 Rocket 2.2 14:15:14 10° SSW 14:20:55 67° ESE 14:22:40 43° NE
Cosmos 1943 Rocket 3.9 14:16:44 10° SW 14:21:22 26° WNW 14:25:09 13° NNW
Cosmos 1500 Rocket 3.5 14:20:46 51° N 14:21:54 83° E 14:26:26 10° S
Cosmos 44 4.3 14:26:53 28° ESE 14:26:53 28° ESE 14:29:21 10° SE
Cosmos 2228 Rocket 4.4 14:23:05 10° SSE 14:26:58 26° ESE 14:26:58 26° ESE
BREEZE-M DEB (TANK) 3.9 14:10:45 10° NW 14:27:49 78° SW 14:31:55 10° SE
ERS-1 Rocket 4.0 14:25:21 10° SE 14:29:20 29° E 14:29:20 29° E
OAO 3 Rocket 3.3 14:27:59 10° WNW 14:32:03 53° NNW 14:32:03 53° NNW
Cosmos 1674 4.2 14:29:43 10° SSE 14:31:59 24° SE 14:31:59 24° SE
CZ-2C R/B 4.0 14:42:28 52° NNW 14:43:24 65° WNW 14:48:12 10° SSW
Meteor 2-9 Rocket 4.4 14:43:48 51° ENE 14:44:25 54° E 14:50:03 10° SSE
Lacrosse 4 Rocket 3.4 14:47:10 17° SE 14:47:10 17° SE 14:48:21 10° SE
Cosmos 1633 Rocket 4.5 14:46:31 26° ESE 14:46:31 26° ESE 14:49:15 10° SSE
CZ-4C R/B 2.2 14:42:45 10° SW 14:47:30 44° WNW 14:47:48 43° NW
NOSS 3-2 (C) 3.0 14:44:07 10° SW 14:50:19 86° WNW 14:51:15 63° NNE
Cosmos 2297 4.4 14:45:39 10° SW 14:51:08 45° WNW 14:52:46 36° NNW
Resurs 01 Rocket 3.6 14:49:36 10° SSW 14:53:19 26° WSW 14:56:33 12° WNW
Sich 1 3.4 14:54:16 55° WNW 14:54:39 58° W 14:58:55 10° S
H-2A R/B 2.4 14:55:28 56° SE 14:55:28 56° SE 14:59:22 10° S
SPOT 3 Rocket 4.1 14:51:39 10° SSE 14:56:14 44° E 14:56:14 44° E
Okean-O 4.2 14:54:11 10° S 14:58:09 32° WSW 15:00:26 20° WNW
Meteor 1-13 Rocket 4.0 14:52:58 10° S 14:58:38 90° E 14:59:27 67° N
MetOp-A 4.5 14:53:32 10° SSE 14:58:17 46° E 14:58:17 46° E
Cosmos 676 Rocket 3.9 14:59:57 69° ENE 14:59:57 69° ENE 15:05:07 10° SSE
Cosmos 1626 3.3 14:58:17 10° SSW 15:00:47 39° SW 15:00:47 39° SW
Spot 2 Rocket 3.8 14:57:26 10° SSE 15:02:02 50° E 15:02:02 50° E
Cosmos 1842 4.0 15:01:07 10° S 15:04:04 50° SSW 15:04:04 50° SSW
Cosmos 2084 Rocket 4.2 15:07:07 45° W 15:07:58 53° SW 15:12:25 10° SSE
Cosmos 1763 Rocket 3.4 15:03:08 10° SSW 15:08:15 71° ESE 15:08:17 71° ESE
IRS-1A Rocket 4.4 15:04:05 10° S 15:09:47 75° WSW 15:11:16 51° NW
Cosmos 1666 Rocket 4.0 15:10:42 58° SE 15:10:42 58° SE 15:14:28 10° SSE
Cosmos 2184 Rocket 4.2 15:03:49 10° S 15:10:10 57° E 15:11:01 53° ENE
Ariane Rocket 2.9 15:05:49 10° SSE 15:10:56 76° E 15:10:56 76° E
SPOT 5 3.0 15:11:12 10° S 15:15:34 60° WSW 15:15:37 60° WSW
Cosmos 1707 3.8 15:12:08 10° S 15:14:44 42° S 15:14:44 42° S
Cosmos 1707 Rocket 4.0 15:15:30 10° S 15:19:19 60° SSE 15:19:19 60° SSE
Cosmos 1603 4.3 15:18:28 33° WNW 15:20:44 53° WSW 15:26:16 10° SSE
Atlas Centaur 2 4.4 15:18:36 10° WNW 15:19:12 12° WNW 15:19:12 12° WNW
In-Cosmos 22 4.0 15:20:44 10° S 15:26:13 84° W 15:26:14 84° WNW
ATLAS 2AS CENTAUR R/B 4.5 15:33:30 15° E 15:33:30 15° E 15:35:33 10° ESE
USA 238 DEB 3.5 15:30:21 10° SW 15:36:54 65° WNW 15:37:16 64° NW
USA 238 3.5 15:30:22 10° SW 15:36:56 66° WNW 15:37:20 65° NW
Cosmos 1726 4.4 15:44:15 22° SSW 15:44:15 22° SSW 15:45:48 10° SSW
Meteor 1-23 Rocket 4.5 15:40:24 10° SSW 15:46:12 61° W 15:46:27 60° WNW
Cosmos 540 Rocket 3.7 15:43:04 10° SSW 15:47:34 63° WSW 15:47:34 63° WSW
Meteor 2-20 4.5 15:48:16 65° WNW 15:48:54 70° W 15:55:07 10° S
H-2A R/B 3.9 15:49:51 10° SSE 15:52:31 34° SE 15:52:31 34° SE
Terra 2.7 15:50:52 10° S 15:55:21 42° WSW 15:55:21 42° WSW
Cosmos 2369 Rocket 4.3 16:01:09 10° WSW 16:04:14 15° W 16:04:27 15° W
PSLV R/B 4.5 16:09:16 52° SSW 16:09:16 52° SSW 16:12:56 10° SSW
ERS-1 Rocket 4.4 16:04:05 10° S 16:08:28 30° WSW 16:09:16 28° W
USA 215 4.2 16:17:22 20° E 16:21:32 43° SSE 16:27:42 10° SW
Lacrosse 4 Rocket 3.6 16:23:09 19° SW 16:23:09 19° SW 16:26:07 10° S
RESURS DK-1 4.2 16:25:47 30° S 16:25:47 30° S 16:28:01 10° SSE
Cosmos 1656 4.0 16:20:40 10° SSW 16:25:42 56° SE 16:25:42 56° SE
Cosmos 2218 Rocket 4.3 16:20:18 10° S 16:26:23 54° E 16:26:24 54° E
ARIANE 5 R/B 3.9 16:22:46 10° SSE 16:25:32 38° SSE 16:25:32 38° SSE
MOS 1 Rocket 3.9 16:30:53 10° S 16:35:37 67° S 16:35:37 67° S
Cosmos 1833 Rocket 3.1 16:38:43 57° SE 16:38:43 57° SE 16:43:20 10° SSE
SJ 16-02 3.1 16:41:42 27° SE 16:41:42 27° SE 16:43:57 10° SSE
Cosmos 968 Rocket 4.0 16:44:01 58° SSW 16:44:01 58° SSW 16:48:33 10° SSE
Cosmos 2082 Rocket 3.5 17:00:53 29° E 17:00:53 29° E 17:04:51 10° SE
GP-B 4.3 16:58:51 10° S 17:01:50 41° SSE 17:01:50 41° SSE
SL-8 Rocket 4.4 17:06:50 10° SSW 17:12:44 53° W 17:12:44 53° W
NOSS 2-3 (E) 4.5 17:09:31 10° SSW 17:17:07 73° SE 17:17:38 69° E
Cosmos 1821 Rocket 3.9 17:13:40 10° S 17:20:01 80° E 17:20:10 80° ENE
ATLAS 2AS CENTAUR R/B 2.5 17:20:53 72° W 17:21:23 77° WSW 17:28:17 10° SSE
Meteor 2-5 Rocket 3.9 17:21:36 10° S 17:27:15 67° ESE 17:27:15 67° ESE
Cosmos 1733 Rocket 4.3 17:30:24 40° SSW 17:30:24 40° SSW 17:33:19 10° S
Cosmos 2221 Rocket 4.5 17:34:51 10° S 17:38:19 48° SSE 17:38:19 48° SSE
Cosmos 1697 Rocket 2.8 17:34:45 10° SSW 17:39:53 71° SW 17:39:53 71° SW
ADEOS II 3.2 17:42:23 33° E 17:43:29 37° ESE 17:48:19 10° S
Cosmos 2208 Rocket 4.2 17:38:10 10° SSW 17:43:09 74° SSE 17:43:09 74° SSE
Cosmos 1503 Rocket 4.4 17:48:45 55° ESE 17:48:45 55° ESE 17:53:19 10° SSE
SL-08 R/B 4.3 17:46:23 10° S 17:52:35 74° W 17:52:41 74° WNW
Resurs 1-4 Rocket 2.1 17:54:45 79° ESE 17:54:45 79° ESE 18:00:00 10° S
IDEFIX/ARIANE 42P 2.5 17:58:28 82° SE 17:58:28 82° SE 18:03:40 10° SSW
Cosmos 1354 Rocket 4.4 17:59:19 54° E 17:59:19 54° E 18:04:14 10° SSE
COSMOS 2406 3.1 17:59:21 85° WSW 17:59:23 85° WSW 18:05:12 10° SSE
Cosmos 1340 4.5 18:02:57 28° S 18:02:57 28° S 18:04:47 10° S
Cosmos 1300 4.3 18:04:58 33° S 18:04:58 33° S 18:07:07 10° S
USA 215 3.3 18:04:39 58° WNW 18:04:39 58° WNW 18:10:52 10° SW
CZ-2D R/B 2.1 18:04:58 87° NW 18:05:00 87° WNW 18:10:35 10° SSW
NOSS 3-1 (C) 3.7 17:59:40 10° SSW 18:05:52 56° SE 18:07:53 35° ENE
Cosmos 1455 4.5 18:08:51 17° E 18:08:51 17° E 18:10:58 10° SE
Cosmos 1980 Rocket 2.1 18:03:39 10° SSW 18:09:24 83° ESE 18:09:55 73° NE
Cosmos 2369 3.8 18:04:14 10° SSW 18:09:57 71° ESE 18:10:59 57° ENE
ALOS 2 4.2 18:09:49 10° SSW 18:12:53 25° SW 18:12:53 25° SW
Cosmos 773 Rocket 4.4 18:10:03 10° S 18:15:21 59° ESE 18:16:26 49° ENE
SJ 16-02 3.7 18:18:31 14° WSW 18:18:31 14° WSW 18:20:49 10° SSW
Cosmos 1025 Rocket 3.6 18:14:12 10° S 18:18:25 55° ESE 18:18:25 55° ESE
Helios 1A Rocket 3.9 18:18:39 10° S 18:21:29 39° SSW 18:21:29 39° SSW
FENGYUN 3A 4.1 18:25:13 41° NE 18:26:56 59° ESE 18:32:17 10° S
Meteor 2-10 Rocket 4.0 18:31:14 50° W 18:31:39 51° WSW 18:37:21 10° S
AQUA 3.7 18:32:01 88° NNW 18:32:03 89° W 18:36:53 10° SSW
Cosmos 371 Rocket 3.7 18:32:39 50° ENE 18:33:01 51° ENE 18:37:47 10° SSE
USA 306 3.9 18:35:32 34° SSE 18:35:32 34° SSE 18:37:54 10° SE
Cosmos 1782 Rocket 3.7 18:36:44 71° SW 18:36:44 71° SW 18:40:58 10° S
ISS -2.3 18:42:30 37° SE 18:42:30 37° SE 18:44:43 10° SE
Cosmos 1953 2.8 18:43:16 51° SSW 18:43:16 51° SSW 18:46:29 10° S
Cosmos 2082 Rocket 3.1 18:42:42 32° W 18:43:50 35° WSW 18:49:04 10° S
Cosmos 1934 Rocket 4.3 18:40:13 10° SSW 18:46:19 48° W 18:47:11 45° WNW
Cosmos 2278 4.2 18:40:40 10° SSW 18:46:20 60° ESE 18:50:35 18° NE
ATLAS 3B R/B 2.4 18:40:38 10° SSW 18:46:58 84° ESE 18:52:08 16° NE
Cosmos 44 Rocket 3.4 18:48:46 55° WSW 18:49:04 57° WSW 18:53:40 10° SSE
COSMOS 2441 4.5 18:49:23 57° W 18:49:23 57° W 18:54:08 10° SSW
Cosmos 1605 Rocket 3.8 18:44:19 10° S 18:50:29 75° W 18:52:10 50° NNW
MSX 4.5 18:54:18 37° W 18:54:18 37° W 18:59:39 10° SSW
Cosmos 1315 Rocket 3.1 18:53:34 10° SSW 18:56:59 55° SW 18:56:59 55° SW
Genesis I 3.2 18:55:32 10° SSW 18:59:14 68° ESE 18:59:15 68° ESE
CZ-2C R/B 3.3 18:57:00 32° NNE 18:59:40 77° ESE 19:05:27 10° S
Cosmos 1975 Rocket 2.9 18:56:08 10° S 19:00:32 78° W 19:00:48 74° NW
Cosmos 1328 3.7 18:56:50 10° S 19:00:33 75° SW 19:00:33 75° SW
Cosmos 2360 Rocket 4.2 19:01:59 10° S 19:06:51 28° ESE 19:11:41 10° ENE
SL-8 R/B 4.2 19:08:33 41° NNE 19:09:08 44° NE 19:13:44 10° ESE
Tiangong -0.3 19:13:15 24° ENE 19:13:15 24° ENE 19:14:56 10° E
MOZ.5/SAFIR/RUBIN 5/SL-8 3.9 19:07:52 10° SSE 19:12:36 69° ENE 19:14:07 41° N
Cosmos 1153 Rocket 4.4 19:06:30 10° S 19:12:46 85° W 19:16:08 30° N
CZ-2C R/B 3.4 19:12:39 10° NE 19:17:38 49° ESE 19:22:37 10° S
Cosmos 1867 3.7 19:13:42 10° SW 19:18:53 49° WNW 19:20:03 42° NNW
Meteor 1-21 Rocket 4.3 19:15:09 10° SSW 19:20:39 55° W 19:22:25 39° NNW
Lacrosse 5 rocket 2.2 19:18:31 10° SSW 19:22:04 44° SE 19:25:41 10° ENE
Cosmos 1892 3.8 19:19:14 10° SSW 19:21:44 29° WSW 19:21:44 29° WSW
ADEOS II 3.2 19:23:16 26° W 19:23:16 26° W 19:27:32 10° SW
Cosmos 2322 Rocket 3.0 19:17:46 10° SSW 19:23:18 51° ESE 19:28:44 10° NE
ATLAS CENTAUR R/B 1.4 19:18:59 10° SSW 19:23:29 86° ESE 19:27:16 13° NNE
Thor Agena Rocket 3.4 19:21:56 34° N 19:24:11 72° WNW 19:29:24 10° SSW
Cosmos 2151 Rocket 3.7 19:22:48 37° N 19:24:33 74° E 19:29:08 10° S
Cosmos 1000 Rocket 4.5 19:23:07 29° N 19:26:37 89° WNW 19:33:04 10° S
Cosmos 2333 Rocket 3.9 19:23:41 10° S 19:28:49 33° ESE 19:33:55 10° ENE
Meteor 1-4 Rocket 2.0 19:31:04 10° SSW 19:34:18 76° W 19:34:30 71° NW
SL-27 R/B 4.3 19:33:03 16° NE 19:34:21 20° E 19:36:43 10° SE
Cosmos 1825 3.1 19:31:18 10° SSW 19:34:01 30° WSW 19:34:01 30° WSW
Resurs 1-4 Rocket 4.2 19:35:48 11° W 19:35:48 11° W 19:36:37 10° WSW
ALOS 2.6 19:34:57 38° NW 19:36:01 44° W 19:40:32 10° SSW
CZ-4 R/B 4.3 19:36:18 36° WNW 19:37:07 38° W 19:41:32 10° SSW
BREEZE-M DEB (TANK) 3.5 19:36:53 10° SSW 19:38:50 29° SSE 19:41:52 10° E
USA 307 4.2 19:41:51 12° SW 19:41:58 12° SSW 19:43:00 10° S
USA 305 4.2 19:43:14 11° SSW 19:43:14 11° SSW 19:43:41 10° SSW
USA 229 DEB 4.0 19:36:27 10° SSW 19:42:59 62° SE 19:49:00 10° NE
USA 229 4.0 19:36:31 10° SSW 19:43:03 61° SE 19:49:04 10° NE
Cosmos 1455 3.5 19:43:01 23° WSW 19:43:06 23° WSW 19:46:07 10° SSW
PAYLOAD A 3.9 19:39:07 10° NNE 19:43:50 79° ESE 19:48:35 10° S
YAOGAN 6 3.3 19:41:20 13° NNE 19:44:10 47° ESE 19:47:27 10° S
SL-16 R/B 2.1 19:39:19 10° SSW 19:45:01 68° WNW 19:50:39 10° N
SL-16 R/B 3.8 19:42:22 10° SSE 19:48:05 37° E 19:53:42 10° NNE
METEOR-M 4.1 19:46:17 16° N 19:50:36 68° WNW 19:56:01 10° SSW
CZ-2C R/B 4.3 19:46:46 10° SSE 19:51:43 32° E 19:56:40 10° NNE
Envisat 2.9 19:47:24 10° NNE 19:52:29 84° WNW 19:57:39 10° SSW
Cosmos 1980 Rocket 4.2 19:50:35 10° WSW 19:51:38 11° W 19:51:38 11° W
Cosmos 332 Rocket 3.9 19:50:20 29° NW 19:52:46 66° WSW 19:57:38 10° SSE
Geosat 3.9 19:48:12 10° NNE 19:53:14 78° WNW 19:58:19 10° SSW
NOSS 3-1 (A) 3.4 19:49:29 10° SW 19:55:06 43° WNW 19:59:45 10° N
Cosmos 1459 Rocket 4.0 19:49:12 10° SSW 19:55:36 70° W 20:01:41 11° N
Sich 1 Rocket 4.2 19:58:56 26° NW 20:00:58 41° WSW 20:05:22 10° S
Cosmos 1346 Rocket 3.4 19:58:13 13° N 20:01:28 52° E 20:05:17 10° SSE
Cosmos 1898 Rocket 3.5 19:58:15 24° NNW 20:01:28 68° WSW 20:06:47 10° SSE
Cosmos 923 Rocket 4.4 19:58:08 10° SSW 20:03:23 65° ESE 20:08:36 10° NNE
USA 281 3.2 19:59:58 10° NNE 20:06:33 79° WNW 20:13:12 10° SSW
Cosmos 1441 Rocket 3.5 20:05:08 26° NW 20:07:02 51° W 20:10:51 10° S
IRS-1D 3.9 20:04:11 16° NNW 20:08:11 46° W 20:13:21 10° SSW
H-2A R/B 4.3 20:05:06 10° NE 20:09:26 28° ESE 20:13:54 10° S
Cosmos 1937 Rocket 3.5 20:09:29 18° NNW 20:13:18 74° WSW 20:18:30 10° SSE
Cosmos 1242 Rocket 2.6 20:11:04 10° S 20:14:23 68° E 20:17:37 10° NNE
ISS -1.2 20:16:14 10° WSW 20:18:29 16° SSW 20:20:43 10° SSE
USA 32 4.1 20:15:06 10° N 20:20:21 84° E 20:25:41 10° S
Cosmos 1680 Rocket 3.9 20:15:19 10° SSW 20:20:40 69° ESE 20:25:59 10° NNE
Cosmos 2016 Rocket 4.1 20:17:39 10° SSW 20:24:02 64° W 20:30:19 10° N
Okean 2 Rocket 4.4 20:22:25 17° WNW 20:24:44 24° WSW 20:28:25 10° SSW
Cosmos 2123 Rocket 4.4 20:19:57 15° NNW 20:25:01 47° WSW 20:31:04 10° S
Cosmos 2112 Rocket 4.4 20:26:03 10° SSW 20:31:26 73° ESE 20:36:47 10° NNE
Meteor 1-28 Rocket 3.2 20:29:25 10° S 20:33:04 60° WSW 20:36:31 11° NNW
ATLAS 3B R/B 4.0 20:33:39 10° WSW 20:36:44 14° WNW 20:39:09 11° NW
Cosmos 921 Rocket 2.9 20:35:24 10° SSW 20:39:39 89° WNW 20:43:50 10° NNE
UNK 3.8 20:41:16 10° SSE 20:45:59 84° WSW 20:50:35 10° NNW
Cosmos 2233 Rocket 4.1 20:39:45 10° SSW 20:46:05 67° W 20:52:19 10° N
Okean 1 Rocket 4.4 20:42:59 11° NW 20:46:25 25° WSW 20:50:10 10° SSW
Tiangong -1.8 20:45:32 10° W 20:48:40 63° SSW 20:51:50 10° ESE
Meteor 2-15 Rocket 4.4 20:44:08 10° S 20:50:17 78° W 20:56:23 10° N
Cosmos 2360 Rocket 2.7 20:45:39 10° SW 20:50:55 40° WNW 20:56:09 10° N
CZ-2C R/B 4.0 20:52:24 10° NW 20:55:59 19° W 20:59:34 10° SW
Cosmos 1892 Rocket 3.7 20:52:30 10° SSW 20:56:53 60° W 21:01:15 10° N
Cosmos 2219 Rocket 2.2 20:52:29 10° SSW 20:58:07 75° WNW 21:03:43 10° NNE
Lacrosse 5 rocket 2.6 20:57:54 10° W 21:00:20 17° WNW 21:02:48 10° NNW
ARIANE 5 R/B 2.6 20:58:33 10° N 21:03:48 80° WNW 21:09:04 10° SSW
Cosmos 2322 Rocket 3.4 21:02:49 10° SW 21:06:51 20° W 21:10:52 10° NW
